2022/12/24 00:00:00,79.5,-3.9
2022/12/24 00:10:00,79.3,-3.9
2022/12/24 00:20:00,79.2,-3.9
2022/12/24 00:30:00,79.0,-3.8
2022/12/24 00:40:00,78.9,-3.5
2022/12/24 00:50:00,78.7,-3.7
2022/12/24 01:00:00,78.3,-3.7
2022/12/24 01:10:00,78.1,-3.7
2022/12/24 01:20:00,78.0,-4.1
2022/12/24 01:30:00,77.6,-4.2
2022/12/24 01:40:00,77.3,-3.8
2022/12/24 01:50:00,77.2,-4.0
2022/12/24 02:00:00,77.0,-3.7
2022/12/24 02:10:00,76.8,-3.7
2022/12/24 02:20:00,76.7,-3.6
2022/12/24 02:30:00,76.5,-3.3
2022/12/24 02:40:00,76.3,-3.3
2022/12/24 02:50:00,76.1,-3.3
2022/12/24 03:00:00,76.2,-3.3
2022/12/24 03:10:00,76.0,-3.3
2022/12/24 03:20:00,75.8,-3.3
2022/12/24 03:30:00,75.7,-3.2
2022/12/24 03:40:00,75.6,-3.1
2022/12/24 03:50:00,75.4,-2.6
2022/12/24 04:00:00,75.2,-3.0
2022/12/24 04:10:00,75.0,-2.8
2022/12/24 04:20:00,74.9,-2.8
2022/12/24 04:30:00,74.7,-2.7
2022/12/24 04:40:00,74.4,-2.8
2022/12/24 04:50:00,74.1,-2.6
2022/12/24 05:00:00,74.0,-2.9
2022/12/24 05:10:00,73.8,-2.6
2022/12/24 05:20:00,73.4,-2.4
2022/12/24 05:30:00,73.3,-2.5
2022/12/24 05:40:00,73.3,-2.5
2022/12/24 05:50:00,73.4,-2.6
2022/12/24 06:00:00,73.5,-2.7
2022/12/24 06:10:00,73.5,-2.4
2022/12/24 06:20:00,73.5,-2.5
2022/12/24 06:30:00,73.3,-2.5
2022/12/24 06:40:00,73.3,-2.6
2022/12/24 06:50:00,73.4,-2.6
2022/12/24 07:00:00,73.6,-2.1
2022/12/24 07:10:00,73.6,-2.5
2022/12/24 07:20:00,73.5,-2.2
2022/12/24 07:30:00,73.7,-2.0
2022/12/24 07:40:00,73.7,-2.2
2022/12/24 07:50:00,74.0,-1.9
2022/12/24 08:00:00,74.2,-1.7
2022/12/24 08:10:00,74.3,-1.5
2022/12/24 08:20:00,74.1,-1.5
2022/12/24 08:30:00,73.9,-1.4
2022/12/24 08:40:00,73.7,-1.1
2022/12/24 08:50:00,73.5,-0.6
2022/12/24 09:00:00,73.4,-0.9
2022/12/24 09:10:00,73.3,-0.9
2022/12/24 14:10:00,71.8, 0.6
2022/12/24 14:20:00,71.5, 0.4
2022/12/24 14:30:00,71.3, 0.6
2022/12/24 14:40:00,71.0, 0.4
2022/12/24 14:50:00,70.7, 0.4
2022/12/24 15:00:00,70.6, 0.5
2022/12/24 15:10:00,70.6, 0.4
2022/12/24 15:20:00,70.5, 0.2
2022/12/24 15:30:00,70.4, 0.5
2022/12/24 15:40:00,73.1, 0.3
2022/12/24 15:50:00,79.2, 0.3
2022/12/24 16:00:00,79.2, 0.3
2022/12/24 16:10:00,79.5, 0.4
2022/12/24 16:20:00,79.1, 0.3
2022/12/24 16:30:00,78.7, 0.2
2022/12/24 16:40:00,78.6, 0.3
2022/12/24 16:50:00,78.5, 0.3
2022/12/24 17:00:00,78.5, 0.1
2022/12/24 17:10:00,78.3,-0.2
2022/12/24 17:20:00,78.3,-0.0
2022/12/24 17:30:00,78.3,-0.0
2022/12/24 17:40:00,78.2,-0.2
2022/12/24 17:50:00,78.1,-0.2
2022/12/24 18:00:00,77.9,-0.2
2022/12/24 18:10:00,77.9,-0.0
2022/12/24 18:20:00,77.9,-0.2
2022/12/24 18:30:00,77.7,-0.1
2022/12/24 18:40:00,77.5,-0.0
2022/12/24 18:50:00,77.5,-0.3
2022/12/24 19:00:00,77.5,-0.3
2022/12/24 19:10:00,77.4,-0.2
2022/12/24 19:20:00,77.3, 0.1
2022/12/24 19:30:00,77.2,-0.3
2022/12/24 19:40:00,77.0,-0.0
2022/12/24 19:50:00,77.0,-0.3
2022/12/24 20:00:00,76.7,-0.4
2022/12/24 20:10:00,76.8,-0.0
2022/12/24 20:20:00,77.0, 0.1
2022/12/24 20:30:00,77.0,-0.2
2022/12/24 20:40:00,76.9,-0.1
2022/12/24 20:50:00,77.0,-0.1
2022/12/24 21:00:00,77.1,-0.2
2022/12/24 21:10:00,77.0, 0.1
2022/12/24 21:20:00,76.7,-0.1
2022/12/24 21:30:00,76.5,-0.2
2022/12/24 21:40:00,76.5, 0.1
2022/12/24 21:50:00,76.5,-0.0
2022/12/24 22:00:00,76.4, 0.3
2022/12/24 22:10:00,76.3, 0.2
2022/12/24 22:20:00,76.3,-0.2
2022/12/24 22:30:00,76.3, 0.1
2022/12/24 22:40:00,76.2, 0.3
2022/12/24 22:50:00,76.1,-0.1
2022/12/24 23:00:00,76.0, 0.2
2022/12/24 23:10:00,76.0, 0.3
2022/12/24 23:20:00,75.9, 0.3
2022/12/24 23:30:00,75.7, 0.3
2022/12/24 23:40:00,75.8, 0.2
2022/12/24 23:50:00,75.8, 0.3
